Regional Weather Roundup
Issued by NWS Northern Indiana

Home | Current Version | Previous Version | Text Only | Print | Product List | Glossary Off
Versions: 1 2 3 4 5 6 7 8 9 10 11 12 13 14 15 16 17 18 19 20 21 22 23 24 25 26 27 28 29 30 31 32 33 34 35 36 37 38 39 40 41 42 43 44 45 46 47 48 49 50

000
ASUS43 KIWX 010810
RWRIWX

KIWX WEATHER ROUNDUP
NATIONAL WEATHER SERVICE NORTHERN INDIANA
400 AM EDT WED OCT 01 2014

NOTE: "FAIR" INDICATES FEW OR NO CLOUDS BELOW 12,000 FEET WITH NO
SIGNIFICANT WEATHER AND/OR OBSTRUCTIONS TO VISIBILITY.

* THESE STATIONS ARE NOT UNDER NWS QUALITY CONTROL. THEY ALSO MAY NOT
  REPORT WEATHER SUCH AS PRECIPITATION OR FOG.

INZ001>027-010900-
NORTHERN INDIANA

CITY           SKY/WX    TMP DP  RH WIND       PRES   REMARKS
GARY*          CLEAR     50  46  86 E5        30.01F
VALPARAISO     CLEAR     44  42  93 NE3       30.00F
MICHIGAN CITY* CLOUDY    46  46 100 CALM      30.01F
LAPORTE*       CLOUDY    47  47 100 CALM      30.01F
KNOX*          CLEAR     41  39  93 CALM      30.00F
SOUTH BEND     NOT AVBL
MONTICELLO*    CLEAR     46  46  98 CALM      29.99S
LOGANSPORT*    CLEAR     43  41  93 E5        30.00F
ROCHESTER*     PTCLDY    45  45 100 CALM      30.01F FOG
WARSAW*        MOCLDY    50  46  87 CALM      30.01F
ANGOLA*        CLOUDY    52  48  87 E3        30.02F
FORT WAYNE     PTCLDY    49  47  93 E7        30.02F
HUNTINGTON*    PTCLDY    49  47  96 E3        30.01F
PERU/GRISSOM   CLEAR     44  44 100 E5        29.99F
MARION*        CLEAR     42  42  98 CALM      30.00F

$$
INZ028>050-010900-
CENTRAL INDIANA

CITY           SKY/WX    TMP DP  RH WIND       PRES   REMARKS
LAFAYETTE      CLEAR     46  44  93 E6        29.99F
KOKOMO*        CLEAR     43  39  87 E3        30.01S
MUNCIE*        PTCLDY    42  41  96 CALM      30.00F
INDIANAPOLIS   CLEAR     50  45  83 E6        29.98F

$$
MIZ043>046-050>051-056>058-064>065-071>073-077>080-010900-
SOUTHWEST LOWER MICHIGAN

CITY           SKY/WX    TMP DP  RH WIND       PRES   REMARKS
BATTLE CREEK   CLOUDY    52  47  83 NE5       30.03F
COLDWATER*     CLOUDY    53  49  85 E5        30.02F
HILLSDALE*     CLOUDY    50  50 100 CALM      30.03S
GRAND RAPIDS   CLOUDY    53  50  89 NE5       30.05F
KALAMAZOO      CLOUDY    52  46  80 E5        30.04F
STURGIS*       CLOUDY    52  48  87 E3        30.02F
THREE RIVERS*  CLOUDY    54  50  87 E3        30.03F

$$
OHZ001>008-015>018-024>025-010900-
NORTHWEST OHIO

CITY           SKY/WX    TMP DP  RH WIND       PRES   REMARKS
WAUSEON*       CLOUDY    48  48 100 CALM      30.03S
DEFIANCE       CLOUDY    52  48  86 N6        30.02F
FINDLAY        CLOUDY    53  49  86 N6        30.00F
TOLEDO EXPRESS CLOUDY    49  47  93 N3        30.02F
TOLEDO METCALF CLOUDY    52  48  86 N6        30.02F
LIMA           CLOUDY    51  49  92 N5        30.01F

$$
AND FOR LAKE MICHIGAN COASTAL AND OPEN LAKE BUOY OBSERVATIONS

STATION/POSITION TEMP    WIND        PRES    VSBY  WAVE
                 AIR SEA DIR/SP/G                  HT/PER
                 (F)     (DEG/KT/KT) (MB)    (MI)  (FT/S)
CALUMET HARBOR    55     100/  8/ 11 1014.8F
MICHIGAN CITY     53      70/  5/  6   N/A
SAINT JOSEPH      54        CALM     1016.9S
SOUTH LAKE BUOY   57 62  110/ 12/ 16 1016.4F         2/ 6
4 MI NW BRIDGMAN  56 62   70/ 10/ 12   N/A           2/ 2
MICHIGAN CITY     56 64  110/ 10/ 12   N/A           2/ 2

$$
&&



USA.gov is the U.S. government's official web portal to all federal, state and local government web resources and services.